This is the latest recevied weather packets stored in our database for station/object kj4yre. If no packets are shown the sender has not sent any weather packets the latest 10 day(s).
| Time | Temp. | Humidity | Pressure | Rain* | Wind** | Luminosity | Snow |
|---|---|---|---|---|---|---|---|
| 1787568435 | 15.56° C | 100% | 1014.5 hPa | 0 mm | - | - | - |
| 1787563335 | 16.11° C | 100% | 1014.2 hPa | 0 mm | - | - | - |
| 1787562436 | 16.11° C | 100% | 1014.2 hPa | 0 mm | - | - | - |
| 1787560036 | 16.67° C | 100% | 1013.9 hPa | 0 mm | - | - | - |
| 1787559436 | 16.67° C | 100% | 1013.9 hPa | 0 mm | - | - | - |
| 1787558537 | 17.22° C | 100% | 1013.9 hPa | 0 mm | - | - | - |
| 1787557336 | 17.22° C | 100% | 1013.9 hPa | 0 mm | - | - | - |
| 1787555536 | 17.22° C | 100% | 1014.2 hPa | 0 mm | - | - | - |
| 1787553138 | 17.78° C | 100% | 1014.2 hPa | 0 mm | - | - | - |
| 1787550435 | 17.78° C | 100% | 1014.3 hPa | 0 mm | - | - | - |
| 1787549235 | 18.33° C | 100% | 1014.3 hPa | 0 mm | - | - | - |
| 1787544436 | 18.89° C | 100% | 1013.9 hPa | 0 mm | - | - | - |
| 1787541739 | 18.89° C | 99% | 1013.6 hPa | 0 mm | - | - | - |
| 1787541139 | 19.44° C | 99% | 1013.7 hPa | 0 mm | - | - | - |
| 1787533037 | 20.56° C | 95% | 1013.7 hPa | 0 mm | - | - | - |
| 1787532138 | 21.11° C | 92% | 1013.4 hPa | 0 mm | - | - | - |
| 1787529436 | 22.78° C | 84% | 1012.8 hPa | 0 mm | - | - | - |
| 1787528537 | 23.89° C | 83% | 1012.7 hPa | 0 mm | - | - | - |
| 1787526737 | 25° C | 77% | 1012.4 hPa | 0 mm | - | - | - |
| 1787522238 | 29.44° C | 56% | 1011.8 hPa | 0 mm | - | - | - |
| 1787521939 | 28.89° C | 61% | 1011.8 hPa | 0 mm | - | - | - |
| 1787514437 | 30.56° C | 52% | 1011.5 hPa | 0 mm | - | - | - |
| 1787511434 | 29.44° C | 55% | 1011.6 hPa | 0 mm | - | - | - |
| 1787510236 | 30° C | 53% | 1011.8 hPa | 0 mm | - | - | - |
| 1787509937 | 29.44° C | 57% | 1012 hPa | 0 mm | - | - | - |
* Rain latest hour (hover to see other rain measurements)
** Current wind speed in m/s (hover to see current wind gust speed)